TimeCST,TemperatureF,Dew PointF,Humidity,Sea Level PressureIn,VisibilityMPH,Wind Direction,Wind SpeedMPH,Gust SpeedMPH,PrecipitationIn,Events,Conditions,WindDirDegrees,DateUTC
12:52 AM,21.0,16.0,81,30.06,-9999.0,WNW,8.1,-,N/A,,Unknown,290,2013-01-02 06:52:00
1:52 AM,26.1,21.9,84,30.04,-9999.0,WNW,12.7,-,N/A,,Unknown,300,2013-01-02 07:52:00
2:52 AM,28.0,25.0,88,30.05,-9999.0,WNW,13.8,-,N/A,,Unknown,300,2013-01-02 08:52:00
3:52 AM,28.9,25.0,85,30.05,-9999.0,WNW,11.5,-,N/A,,Unknown,300,2013-01-02 09:52:00
4:52 AM,30.0,24.1,79,30.05,-9999.0,NW,13.8,-,N/A,,Unknown,310,2013-01-02 10:52:00
5:52 AM,30.0,24.1,79,30.05,-9999.0,WNW,12.7,-,N/A,,Unknown,300,2013-01-02 11:52:00
6:52 AM,30.9,24.1,76,30.06,-9999.0,WNW,17.3,-,N/A,,Unknown,300,2013-01-02 12:52:00
7:52 AM,30.0,24.1,79,30.08,-9999.0,NW,15.0,-,N/A,,Unknown,310,2013-01-02 13:52:00
8:52 AM,30.0,25.0,82,30.10,-9999.0,WNW,11.5,-,N/A,,Unknown,300,2013-01-02 14:52:00
9:52 AM,30.0,25.0,82,30.11,-9999.0,WNW,13.8,-,N/A,,Unknown,300,2013-01-02 15:52:00
10:52 AM,30.9,25.0,79,30.12,-9999.0,NW,16.1,-,N/A,,Unknown,310,2013-01-02 16:52:00
11:52 AM,30.9,24.1,76,30.12,-9999.0,WNW,18.4,21.9,N/A,,Unknown,300,2013-01-02 17:52:00
12:52 PM,32.0,24.1,73,30.11,-9999.0,NW,16.1,24.2,N/A,,Unknown,310,2013-01-02 18:52:00
1:52 PM,30.9,25.0,79,30.10,-9999.0,NW,15.0,-,N/A,,Unknown,310,2013-01-02 19:52:00
2:52 PM,32.0,25.0,75,30.11,-9999.0,NW,10.4,-,N/A,,Unknown,320,2013-01-02 20:52:00
3:52 PM,30.0,25.0,82,30.13,-9999.0,NW,12.7,-,N/A,,Unknown,310,2013-01-02 21:52:00
4:52 PM,30.0,24.1,79,30.15,-9999.0,WNW,12.7,-,N/A,,Unknown,300,2013-01-02 22:52:00
5:52 PM,28.0,24.1,85,30.17,-9999.0,NW,19.6,-,N/A,,Unknown,310,2013-01-02 23:52:00
6:52 PM,27.0,21.9,81,30.19,-9999.0,NW,16.1,-,N/A,,Unknown,310,2013-01-03 00:52:00
7:52 PM,27.0,21.0,78,30.21,-9999.0,NNW,12.7,20.7,N/A,,Unknown,340,2013-01-03 01:52:00
8:52 PM,27.0,21.0,78,30.25,-9999.0,NW,13.8,-,N/A,,Unknown,310,2013-01-03 02:52:00
9:52 PM,27.0,21.0,78,30.27,-9999.0,NNW,12.7,-,N/A,,Unknown,330,2013-01-03 03:52:00
10:52 PM,27.0,21.0,78,30.29,-9999.0,NW,10.4,-,N/A,,Unknown,320,2013-01-03 04:52:00
11:52 PM,27.0,23.0,85,30.31,-9999.0,NW,10.4,-,N/A,,Unknown,310,2013-01-03 05:52:00